Zurück zum Katalog

STARLINK-6253

AktivKommunikationVLEO
NORAD 57083·PAYLOAD·🇺🇸 United States

Gestartet Jun 22, 2023 von Vandenberg Space Force Base

Loading…

Nächste Überflüge (nächste 24 Stunden)

TLE

AktuellSource: CelesTrak SupGP

Epoche: Sep 14, 2026, 14:24 UTC

1 57083C 23088AM  26257.60048611  .00015906  00000+0  57606-3 0  2576
2 57083  43.0001 109.2907 0001421 242.7414  33.4985 15.27572949    17

Verfolge STARLINK-6253 in Echtzeit mit AllMySat

Download on the App Store